Overview Statistics Trail Chart Weather Telemetry Raw packets
 

This is the latest recevied weather packets stored in our database for station/object OK1FET-5. If no packets are shown the sender has not sent any weather packets the latest 10 day(s).

<< 1 2 3 4 5 >>
Time Temp. Humidity Pressure Rain* Wind** Luminosity Snow
1788570593 15.56° C 73% 1016.4 hPa - - - -
1788569997 15.56° C 75% 1016.4 hPa - - - -
1788569401 15.56° C 77% 1016.7 hPa - - - -
1788568805 15.56° C 77% 1016.7 hPa - - - -
1788568210 15.56° C 76% 1016.8 hPa - - - -
1788567614 15.56° C 77% 1016.5 hPa - - - -
1788567018 15.56° C 78% 1016.4 hPa - - - -
1788566423 15.56° C 78% 1016 hPa - - - -
1788565827 16.11° C 76% 1016.1 hPa - - - -
1788565231 16.11° C 77% 1016.3 hPa - - - -
1788564635 16.67° C 74% 1016.3 hPa - - - -
1788564040 17.22° C 72% 1016.1 hPa - - - -
1788563444 17.22° C 70% 1016.1 hPa - - - -
1788562848 17.78° C 68% 1016.4 hPa - - - -
1788562252 17.78° C 68% 1016.1 hPa - - - -
1788561656 17.78° C 70% 1015.5 hPa - - - -
1788561061 17.22° C 70% 1015.6 hPa - - - -
1788560465 17.22° C 68% 1015.1 hPa - - - -
1788558678 17.22° C 68% 1013.7 hPa - - - -
1788558082 17.22° C 69% 1013.7 hPa - - - -
1788556890 17.22° C 66% 1013.1 hPa - - - -
1788556294 17.78° C 64% 1013.1 hPa - - - -
1788555699 17.78° C 64% 1012.7 hPa - - - -
1788555103 17.78° C 64% 1012.7 hPa - - - -
1788554507 18.33° C 61% 1012.6 hPa - - - -

* Rain since midnight (hover to see other rain measurements)
** Current wind speed in m/s (hover to see current wind gust speed)